Weather History for Wolf Point, MT

Change the Weather History Date:

Thursday, July 11, 2013

  Actual Average Record
Temperature  
Mean Temperature 79 °F -  
Max Temperature 97 °F 86 °F 97 °F (2012)
Min Temperature 60 °F 54 °F 46 °F (1999)
Degree Days  
Heating Degree Days 0    
Cooling Degree Days 14    
Growing Degree Days 28 (Base 50)    
Moisture  
Dew Point 62 °F    
Average Humidity 64    
Maximum Humidity 93    
Minimum Humidity 29    
Precipitation  
Precipitation T in 0.07 in 0.14 in (2014)
Month to date precipitation 0.47 0.79  
Year to date precipitation 9.19 7.20  
Sea Level Pressure  
Sea Level Pressure 29.67 in    
Wind  
Wind Speed 8 mph (NE)    
Max Wind Speed 16 mph    
Max Gust Speed 23 mph    
Visibility 10 miles    
Events Rain    
T = Trace of Precipitation, MM = Missing Value Source: NWS Daily Summary

Daily Weather History Graph

Daily Weather History Graph

Search for Another Location

Airport:

Trip Planner

Search our weather history database for the weather conditions in past years. The results will help you decide how hot, cold, wet, or windy it might be!

Date:

Astronomy

Jul. 11, 2013 Rise Set
Actual Time 5:14 AM MDT 9:00 PM MDT
Civil Twilight 4:34 AM MDT 9:40 PM MDT
Nautical Twilight 3:40 AM MDT 10:34 PM MDT
Astronomical Twilight 2:20 AM MDT 11:53 PM MDT
Moon 8:54 AM MDT (7/11) 10:20 PM MDT (7/11)
Length of Visible Light 17h 06m
Length of Day
15h 46m
Waxing Crescent, 11% of the Moon is Illuminated
Jul 11
Waxing Crescent
Jul 15
First Quarter
Jul 22
Full
Jul 29
Last Quarter
Aug 6
New

Hourly Weather History & Observations

Time (MDT) Temp. Heat Index Dew Point Humidity Pressure Visibility Wind Dir Wind Speed Gust Speed Precip Events Conditions
12:53 AM 64.0 °F - 59.0 °F 84% 29.83 in 10.0 mi NE 8.1 mph - N/A   Clear
1:53 AM 64.9 °F - 59.0 °F 81% 29.81 in 10.0 mi ENE 5.8 mph - N/A   Clear
2:53 AM 64.0 °F - 60.1 °F 87% 29.79 in 10.0 mi ENE 4.6 mph - N/A   Clear
3:53 AM 61.0 °F - 57.9 °F 90% 29.78 in 10.0 mi ENE 4.6 mph - N/A   Clear
4:53 AM 60.1 °F - 57.0 °F 90% 29.77 in 10.0 mi East 3.5 mph - N/A   Clear
5:53 AM 60.1 °F - 57.9 °F 93% 29.76 in 8.0 mi ENE 5.8 mph - N/A   Clear
6:53 AM 64.0 °F - 61.0 °F 90% 29.74 in 10.0 mi East 9.2 mph - N/A   Clear
7:53 AM 68.0 °F - 63.0 °F 84% 29.72 in 10.0 mi ENE 8.1 mph - N/A   Clear
8:53 AM 72.0 °F - 64.0 °F 76% 29.69 in 10.0 mi ENE 6.9 mph - N/A   Clear
9:53 AM 78.1 °F - 66.0 °F 66% 29.66 in 10.0 mi East 11.5 mph - N/A   Clear
10:53 AM 84.9 °F 88.8 °F 69.1 °F 59% 29.62 in 10.0 mi East 9.2 mph - N/A   Clear
11:53 AM 95.0 °F 94.0 °F 57.9 °F 29% 29.60 in 10.0 mi South 11.5 mph 21.9 mph N/A   Clear
12:53 PM 96.1 °F 96.0 °F 60.1 °F 30% 29.58 in 10.0 mi SSW 12.7 mph 23.0 mph N/A   Clear
1:53 PM 96.1 °F 96.4 °F 61.0 °F 31% 29.57 in 10.0 mi WSW 16.1 mph 23.0 mph N/A   Clear
2:53 PM 91.0 °F 90.9 °F 61.0 °F 36% 29.59 in 10.0 mi West 13.8 mph 21.9 mph N/A   Clear
3:53 PM 91.9 °F 92.5 °F 62.1 °F 37% 29.59 in 10.0 mi WNW 10.4 mph - N/A   Clear
4:53 PM 91.9 °F 90.8 °F 57.9 °F 32% 29.60 in 10.0 mi WNW 12.7 mph - N/A   Clear
5:53 PM 87.1 °F 89.9 °F 66.9 °F 51% 29.60 in 10.0 mi North 9.2 mph - N/A   Clear
6:53 PM 84.9 °F 86.6 °F 64.9 °F 51% 29.62 in 10.0 mi NNW 4.6 mph - N/A   Clear
7:53 PM 81.0 °F 82.7 °F 64.9 °F 58% 29.64 in 10.0 mi West 4.6 mph - N/A   Clear
8:53 PM 77.0 °F - 64.9 °F 66% 29.65 in 10.0 mi South 6.9 mph - N/A   Clear
9:53 PM 75.0 °F - 66.0 °F 73% 29.66 in 10.0 mi West 3.5 mph - N/A   Partly Cloudy
10:53 PM 75.0 °F - 64.9 °F 71% 29.66 in 10.0 mi West 3.5 mph - N/A   Mostly Cloudy
11:53 PM 73.0 °F - 66.0 °F 79% 29.67 in 10.0 mi East 4.6 mph - 0.00 in Rain Light Rain